weather.gov     
National Weather Service

Regional Weather Roundup
NWS Homepage
This page is being discontinued on March 12, 2014.
The same data is available at this site. Please update your bookmarks.
Thank you, and we apologize for the inconvenience.
Please send an email to SR-SRH.Webmaster@noaa.gov with any concerns.


Current Version
Previous Version:    01  02  03  04  05  06  07  08  09  10  11  12  13  14  15  16  17  18  19  20  21  22  23  24  25  26  
[Printable]
549
ASUS44 KBMX 211610
RWRAL

ALABAMA REGIONAL WEATHER ROUNDUP
NATIONAL WEATHER SERVICE BIRMINGHAM AL
1000 AM CST SUN DEC 21 2014

NOTE: "FAIR" INDICATES FEW OR NO CLOUDS BELOW 12,000 FEET
WITH NO SIGNIFICANT WEATHER AND/OR OBSTRUCTIONS TO VISIBILITY.

THE REMARK "TC" DENOTES TEMPERATURE IN DEGREES CELSIUS.

ALZ001>011-014-016>018-020-211700-
NORTH ALABAMA

CITY           SKY/WX    TMP DP  RH WIND       PRES   REMARKS
MUSCLE SHOALS    N/A     42  32  67 MISG      30.22S
HUNTSVILLE     PTSUNNY   43  33  68 E3        30.20S
DECATUR        CLOUDY    41  32  70 E5        30.21S
HALEYVILLE     PTSUNNY   41  38  89 CALM      30.21R
GADSDEN        MOSUNNY   48  39  71 E7        30.20S
$$

ALZ012-013-022-023-030>036-040>044-211700-
WEST CENTRAL ALABAMA

CITY           SKY/WX    TMP DP  RH WIND       PRES   REMARKS
TUSCALOOSA     CLOUDY    48  44  86 NE5       30.18S FOG
$$

ALZ015-024>027-033>036-040>044-211700-
CENTRAL ALABAMA

CITY           SKY/WX    TMP DP  RH WIND       PRES   REMARKS
BIRMINGHAM     PTSUNNY   49  43  80 E10       30.20R
MONTGOMERY     CLOUDY    54  48  80 E10       30.16S
SHELBY CO ARPT CLOUDY    48  45  89 E5        30.18R FOG
MAXWELL AFB    CLOUDY    53  49  84 NE7       30.16S
GREENVILLE     CLOUDY    56  49  77 E7        30.12F
$$

ALZ019-021-028-029-037-038-045>048-211700-
EAST CENTRAL ALABAMA

CITY           SKY/WX    TMP DP  RH WIND       PRES   REMARKS
ANNISTON       CLOUDY    52  45  77 VRB6      30.19S
ALEXANDER CITY CLOUDY    52  46  81 E6        30.17S
AUBURN         CLOUDY    48  45  87 E8        30.19S
$$

ALZ051>064-211700-
SOUTHWEST ALABAMA

CITY           SKY/WX    TMP DP  RH WIND       PRES   REMARKS
MOBILE         CLOUDY    53  50  89 SE7       30.13R FOG
BROOKLEY FIELD CLOUDY    56  51  84 E5        30.14R
EVERGREEN      CLOUDY    59  51  75 NE7       30.13S
$$

ALZ049-050-065>069-211700-
SOUTHEAST ALABAMA

CITY           SKY/WX    TMP DP  RH WIND       PRES   REMARKS
DOTHAN         CLOUDY    54  51  90 NE10      30.17R
OZARK          NOT AVBL
TROY           CLOUDY    57  50  77 E9        30.14S
EUFAULA        CLOUDY    56  50  80 E8        30.15S
$$




U.S. Dept. of Commerce
NOAA National Weather Service
1325 East West Highway
Silver Spring, MD 20910
E-mail: w-nws.webmaster@noaa.gov
Page last modified: May 16, 2007
NATIONAL WEATHER SERVICE: for Safety, for Work, for Fun - FOR LIFE